GFSFLT2_925_temp_021.txt.gz
Temp
-1 -0 -1 -1 -2 -2 -2 -2 -2 -3 -2 -2 -1 -1 -0 -0 0 0 1 0 1 1 1 2 2 3 3
-2 -1 -1 -1 -2 -2 -2 -3 -3 -3 -3 -2 -2 -2 -1 -1 -1 -0 -0 -0 0 1 1 1 1 2 1
-3 -2 -2 -2 -2 -3 -3 -4 -4 -4 -3 -3 -3 -2 -2 -1 -1 -1 -1 -1 -1 -1 -1 -0 0 1 1
-2 -2 -2 -2 -3 -4 -4 -4 -5 -4 -4 -4 -3 -3 -3 -3 -3 -3 -3 -2 -2 -2 -1 -1 -0 -0 0
-3 -2 -3 -4 -4 -4 -5 -5 -5 -4 -4 -4 -4 -5 -4 -3 -3 -4 -4 -3 -2 -2 -1 -1 -1 -1 -0
-2 -4 -4 -4 -4 -5 -5 -6 -5 -4 -4 -5 -5 -5 -4 -4 -4 -4 -3 -2 -2 -2 -1 -1 -1 -1 -0
-2 -3 -3 -3 -4 -5 -5 -6 -5 -5 -5 -5 -5 -6 -5 -4 -4 -4 -3 -3 -2 -2 -2 -1 -1 -1 -1
-3 -3 -3 -3 -4 -4 -4 -5 -5 -6 -6 -6 -5 -6 -5 -5 -5 -4 -4 -3 -3 -2 -2 -1 -1 -1 -1
-3 -3 -3 -4 -4 -4 -5 -6 -6 -6 -6 -7 -6 -5 -5 -5 -4 -3 -4 -3 -3 -3 -2 -2 -2 -2 -2
-4 -4 -4 -4 -5 -5 -6 -7 -7 -7 -5 -6 -6 -7 -6 -4 -4 -4 -5 -4 -5 -4 -4 -3 -3 -3 -3
-5 -5 -5 -6 -6 -6 -7 -7 -8 -8 -7 -7 -6 -7 -7 -7 -6 -6 -6 -6 -5 -5 -5 -5 -4 -4 -4
-6 -7 -7 -6 -6 -6 -6 -6 -7 -8 -6 -8 -8 -8 -8 -7 -7 -6 -6 -6 -6 -6 -6 -6 -5 -4 -4
-8 -7 -7 -7 -7 -6 -6 -7 -7 -7 -7 -7 -8 -8 -7 -7 -7 -7 -6 -6 -6 -6 -6 -5 -5 -5 -6
-8 -8 -8 -8 -8 -8 -9 -9 -9 -8 -7 -7 -7 -7 -7 -7 -7 -7 -6 -6 -6 -6 -6 -6 -6 -6 -6
-9 -9 -9 -9 -9 -8 -9 -9 -9 -8 -8 -7 -7 -7 -7 -7 -7 -6 -6 -6 -6 -6 -6 -6 -5 -5 -5
-9 -10 -10 -10 -10 -9 -8 -9 -9 -9 -8 -8 -8 -8 -6 -5 -5 -6 -6 -5 -5 -5 -5 -5 -4 -3 -3
-10 -9 -10 -9 -9 -10 -9 -9 -9 -8 -8 -8 -7 -6 -6 -6 -4 -3 -4 -4 -4 -4 -3 -3 -3 -3 -3

GFSFLT2_925_temp_024.txt.gz
Temp
0 1 -0 -0 -1 -1 -2 -2 -2 -2 -3 -2 -2 -1 -1 -0 -0 0 1 1 1 1 1 2 2 2 3
-1 -1 -1 -1 -1 -2 -2 -2 -3 -2 -3 -3 -2 -2 -2 -1 -1 -0 -0 -0 0 0 1 1 2 2 2
-3 -2 -2 -2 -2 -2 -3 -3 -3 -3 -3 -4 -3 -3 -2 -2 -1 -1 -1 -1 -1 -1 -0 -0 0 1 1
-2 -2 -2 -2 -3 -3 -4 -4 -4 -4 -3 -3 -4 -3 -3 -3 -3 -3 -3 -2 -2 -2 -1 -1 -1 -0 0
-3 -3 -3 -3 -3 -3 -5 -5 -5 -4 -3 -4 -4 -4 -4 -4 -4 -3 -3 -3 -2 -2 -1 -1 -1 -1 -0
-2 -3 -3 -3 -3 -4 -5 -5 -5 -4 -4 -5 -5 -5 -4 -4 -2 -4 -3 -2 -2 -2 -1 -1 -1 -1 -1
-2 -3 -3 -3 -3 -4 -5 -5 -5 -5 -5 -6 -5 -5 -4 -3 -3 -3 -3 -3 -3 -2 -2 -1 -1 -1 -1
-3 -3 -3 -3 -4 -4 -5 -5 -5 -6 -5 -6 -5 -5 -4 -4 -5 -4 -3 -3 -3 -2 -2 -1 -1 -1 -1
-3 -4 -4 -4 -4 -5 -5 -6 -7 -6 -6 -6 -6 -6 -6 -5 -3 -3 -4 -3 -3 -3 -3 -3 -2 -2 -2
-4 -4 -4 -4 -5 -5 -6 -7 -8 -7 -5 -6 -5 -7 -6 -4 -4 -4 -5 -5 -5 -5 -4 -4 -3 -3 -4
-5 -5 -5 -5 -5 -6 -7 -8 -8 -8 -7 -7 -7 -7 -7 -7 -6 -6 -6 -6 -5 -6 -6 -5 -5 -4 -5
-6 -6 -7 -6 -6 -6 -6 -7 -8 -8 -6 -8 -8 -8 -8 -8 -7 -6 -6 -6 -6 -6 -6 -6 -5 -5 -4
-8 -8 -7 -7 -7 -6 -6 -7 -7 -7 -6 -6 -8 -8 -8 -8 -7 -7 -7 -6 -6 -6 -6 -5 -5 -6 -6
-8 -8 -8 -8 -8 -8 -8 -8 -9 -7 -6 -7 -7 -7 -8 -8 -8 -7 -7 -7 -6 -6 -6 -6 -6 -6 -7
-9 -9 -9 -9 -8 -8 -8 -9 -9 -8 -8 -7 -7 -8 -8 -8 -8 -7 -7 -7 -6 -6 -6 -6 -6 -6 -6
-9 -9 -10 -10 -10 -8 -9 -9 -9 -9 -9 -8 -8 -8 -7 -6 -5 -6 -6 -6 -5 -5 -5 -5 -4 -4 -4
-9 -9 -9 -9 -9 -9 -9 -9 -9 -8 -8 -8 -8 -7 -6 -6 -4 -4 -4 -5 -5 -4 -4 -4 -4 -3 -3

GFSFLT2_925_temp_027.txt.gz
Temp
1 1 1 1 0 -0 -1 -1 -2 -2 -2 -2 -2 -1 -1 -0 0 0 1 1 1 2 2 2 2 2 3
-1 -0 -0 -0 -1 -1 -1 -2 -2 -2 -3 -3 -2 -2 -2 -1 -1 -0 0 0 1 1 1 1 2 2 2
-1 -2 -2 -1 -2 -2 -3 -3 -3 -3 -3 -3 -3 -3 -2 -2 -1 -1 -1 -1 -1 -0 -0 0 1 1 1
-3 -2 -2 -2 -3 -3 -3 -2 -3 -3 -3 -3 -3 -3 -3 -3 -2 -2 -2 -2 -2 -2 -1 -1 -0 -0 0
-2 -2 -2 -2 -2 -2 -3 -3 -3 -4 -4 -3 -4 -4 -3 -3 -3 -2 -2 -3 -3 -2 -1 -1 -0 -0 0
-3 -2 -2 -2 -3 -3 -3 -4 -3 -3 -4 -3 -4 -3 -3 -3 -3 -3 -3 -3 -2 -2 -1 -1 -1 -0 -0
-2 -2 -3 -3 -4 -4 -4 -4 -4 -4 -4 -4 -4 -4 -4 -3 -4 -4 -3 -3 -3 -2 -2 -1 -1 -1 -1
-3 -3 -3 -4 -4 -4 -4 -4 -4 -4 -4 -5 -3 -3 -3 -4 -4 -4 -3 -3 -3 -2 -2 -2 -1 -1 -1
-4 -4 -4 -4 -4 -4 -5 -5 -5 -4 -5 -5 -4 -4 -4 -4 -4 -4 -4 -3 -3 -3 -3 -3 -2 -2 -2
-5 -5 -5 -4 -5 -6 -6 -6 -6 -6 -5 -6 -5 -5 -5 -3 -3 -4 -4 -5 -4 -4 -4 -4 -3 -3 -3
-6 -6 -6 -6 -6 -7 -7 -8 -8 -7 -6 -7 -6 -6 -6 -6 -5 -4 -5 -5 -5 -5 -5 -5 -5 -4 -4
-6 -6 -6 -7 -7 -7 -7 -7 -8 -7 -5 -8 -8 -8 -7 -7 -6 -5 -5 -5 -5 -6 -6 -6 -5 -5 -4
-7 -7 -7 -7 -6 -6 -6 -6 -7 -6 -5 -6 -8 -8 -8 -8 -7 -7 -6 -5 -6 -6 -6 -6 -6 -5 -6
-8 -8 -8 -8 -8 -8 -8 -8 -8 -7 -6 -6 -7 -7 -8 -8 -7 -7 -7 -6 -5 -6 -6 -6 -6 -6 -6
-9 -9 -9 -9 -8 -8 -9 -9 -8 -7 -7 -6 -7 -8 -8 -8 -7 -7 -7 -6 -6 -6 -5 -5 -5 -5 -5
-10 -10 -10 -10 -9 -9 -8 -8 -8 -7 -7 -7 -7 -7 -6 -5 -6 -7 -5 -4 -4 -5 -5 -4 -4 -4 -3
-9 -9 -10 -10 -10 -9 -9 -8 -8 -7 -6 -7 -7 -6 -5 -5 -4 -4 -4 -4 -4 -4 -4 -4 -4 -4 -3

GFSFLT2_925_temp_030.txt.gz
Temp
1 1 1 1 2 0 1 1 0 0 -0 -1 -1 -1 -1 -0 0 1 1 1 2 2 3 3 3 3 3
-1 -1 -1 -0 -3 -2 -2 -1 -1 -0 -1 -2 -2 -1 -1 -1 -1 -0 0 0 1 1 2 2 2 2 3
-2 -2 -3 -3 -3 -3 -2 -1 -0 -1 -1 -1 -2 -1 -2 -1 -1 -1 -1 -0 -0 0 0 0 1 1 2
-2 -1 -2 -2 -2 -1 -0 -0 -0 -1 -1 -1 -2 -2 -2 -2 -2 -2 -2 -2 -2 -1 -1 -1 -0 0 1
-1 -1 -0 0 0 0 -0 -0 -1 -1 -1 -1 -1 -1 -1 -1 -1 -1 -2 -2 -2 -2 -1 -1 -0 0 0
-0 -0 -0 -0 0 -1 -1 -2 -1 -2 -1 -1 -1 -1 -1 -1 -1 -1 -2 -2 -2 -2 -1 -1 -0 -0 -0
-1 -0 -0 -1 -2 -3 -2 -3 -3 -2 -2 -2 -2 -1 -1 -1 -1 -1 -2 -2 -2 -2 -2 -1 -1 -0 -0
-2 -1 -2 -2 -2 -3 -3 -3 -2 -2 -2 -2 -2 -1 -1 -1 -1 -2 -2 -2 -2 -2 -2 -2 -1 -1 -1
-3 -4 -4 -4 -4 -3 -3 -3 -3 -2 -2 -2 -2 -2 -2 -2 -2 -2 -2 -2 -3 -2 -2 -2 -2 -2 -2
-3 -3 -4 -4 -4 -5 -4 -4 -4 -4 -2 -3 -3 -3 -3 -2 -2 -2 -3 -2 -2 -3 -3 -3 -3 -3 -3
-4 -3 -3 -4 -4 -4 -5 -5 -6 -6 -4 -5 -5 -5 -5 -4 -4 -3 -3 -3 -2 -3 -3 -3 -3 -3 -4
-4 -4 -3 -4 -5 -5 -6 -6 -6 -7 -6 -6 -7 -6 -6 -6 -5 -3 -3 -3 -4 -4 -4 -4 -4 -4 -3
-4 -4 -5 -5 -6 -7 -6 -6 -7 -7 -7 -6 -7 -7 -7 -7 -6 -5 -5 -4 -5 -5 -5 -4 -4 -4 -4
-5 -5 -6 -6 -6 -6 -6 -6 -6 -6 -5 -5 -5 -7 -7 -7 -6 -6 -6 -5 -5 -5 -5 -4 -4 -4 -5
-6 -6 -6 -6 -6 -6 -6 -6 -7 -6 -5 -4 -4 -5 -6 -6 -6 -6 -5 -5 -5 -5 -5 -4 -4 -4 -4
-7 -7 -7 -7 -7 -7 -7 -6 -6 -5 -5 -5 -5 -5 -5 -4 -4 -5 -4 -4 -4 -3 -4 -4 -3 -3 -3
-8 -8 -8 -8 -8 -7 -7 -6 -6 -5 -5 -5 -5 -4 -3 -3 -2 -3 -3 -3 -4 -3 -3 -3 -3 -3 -3

GFSFLT2_925_temp_033.txt.gz
Temp
0 1 1 1 0 -0 -0 0 0 0 1 1 0 -0 -0 -0 0 1 1 1 2 2 3 3 3 4 4
-0 -1 -1 -0 -0 -0 -1 -1 -1 -1 -1 -0 -0 -0 -0 -0 -0 -0 0 1 1 1 2 2 2 3 3
-1 -1 -1 -1 -2 -2 -2 -1 -1 -0 0 0 0 -0 -0 -0 -0 -0 -0 0 0 0 0 1 1 1 2
-2 -2 -1 -1 -1 -1 -0 0 0 0 -0 -0 -0 -0 -1 -0 -0 -1 -1 -1 -1 -1 -0 -0 -0 0 1
-1 -1 -1 -0 0 1 0 0 -0 -1 -1 -1 -1 -0 -1 -0 -0 -0 -0 -0 -0 -1 -1 -0 -0 0 0
-0 -0 1 0 0 0 -1 -2 -2 -2 -1 -2 -2 -1 -1 -1 -1 -0 -0 -0 -1 -1 -1 -1 -0 -0 -0
-1 -0 0 0 -1 -2 -2 -2 -2 -2 -2 -2 -2 -1 -1 -1 -1 -0 -0 -1 -1 -1 -1 -1 -1 -1 -0
-1 -1 -1 -1 -2 -2 -2 -2 -2 -2 -2 -2 -1 -1 -1 -1 -1 -1 -1 -1 -1 -1 -1 -1 -1 -1 -1
-3 -3 -3 -3 -3 -3 -3 -3 -3 -3 -3 -3 -2 -2 -2 -2 -1 -1 -1 -1 -1 -1 -1 -1 -1 -1 -1
-2 -3 -3 -3 -3 -3 -4 -4 -4 -4 -2 -3 -3 -4 -4 -2 -2 -2 -3 -2 -2 -1 -2 -2 -1 -2 -2
-3 -3 -3 -3 -3 -3 -3 -4 -5 -5 -5 -5 -5 -5 -5 -5 -4 -4 -4 -3 -3 -2 -2 -2 -3 -3 -3
-3 -3 -3 -3 -4 -4 -5 -5 -6 -6 -6 -6 -6 -6 -6 -6 -6 -5 -5 -4 -5 -4 -4 -4 -4 -3 -3
-4 -4 -4 -4 -5 -5 -6 -6 -6 -6 -5 -5 -6 -6 -7 -6 -6 -6 -6 -5 -5 -5 -5 -4 -4 -4 -4
-5 -5 -5 -5 -5 -5 -5 -6 -6 -6 -6 -5 -5 -5 -5 -6 -6 -6 -6 -6 -5 -5 -5 -5 -5 -4 -4
-6 -6 -6 -6 -6 -6 -6 -6 -6 -6 -6 -5 -5 -4 -5 -5 -5 -5 -5 -5 -5 -5 -5 -4 -4 -4 -4
-7 -7 -7 -7 -7 -7 -7 -7 -6 -6 -5 -5 -5 -5 -5 -4 -4 -5 -4 -4 -4 -3 -3 -4 -3 -3 -3
-7 -7 -7 -7 -7 -8 -7 -7 -6 -6 -6 -5 -5 -5 -4 -4 -3 -2 -2 -3 -3 -3 -4 -3 -3 -3 -3

GFSFLT2_925_temp_039.txt.gz
Temp
2 2 1 2 2 1 1 1 0 -0 -0 0 1 1 1 1 1 1 2 2 2 2 3 3 4 4 4
1 0 -0 0 0 0 0 -0 -0 -0 0 0 0 1 1 1 1 1 1 1 1 1 2 2 3 3 3
-0 0 -0 0 -1 -0 -0 -0 -0 0 -0 -0 1 1 0 0 0 1 1 0 1 1 1 1 1 2 2
0 -0 -1 -1 -1 -1 -1 -0 0 0 -0 -0 -1 -1 -1 -1 -1 -1 -1 -1 -0 0 0 1 1 1 1
-1 -1 -1 -1 -1 -1 -1 -1 -1 -1 -1 -1 -2 -2 -1 -1 -1 -1 -2 -1 -0 0 0 1 1 1 1
-1 -1 -1 -1 -1 -1 -1 -2 -3 -1 -2 -2 -2 -2 -1 -1 -1 -2 -1 -1 -0 -0 0 0 0 1 1
-1 -1 -1 -1 -2 -2 -2 -2 -3 -3 -3 -3 -2 -2 -1 -1 -1 -2 -1 -1 -1 -1 -0 -0 0 0 0
-2 -2 -2 -2 -3 -3 -3 -3 -4 -3 -3 -4 -3 -2 -1 -1 -1 -1 -2 -1 -1 -1 -1 -1 -1 -1 -0
-2 -2 -2 -2 -3 -3 -3 -4 -4 -4 -4 -4 -4 -4 -3 -1 -1 -1 -1 -2 -2 -3 -3 -2 -2 -2 -2
-3 -3 -3 -3 -3 -3 -3 -3 -4 -5 -4 -4 -4 -5 -5 -4 -3 -3 -3 -3 -4 -4 -4 -4 -4 -4 -3
-4 -4 -3 -3 -3 -3 -3 -4 -4 -4 -4 -5 -6 -6 -6 -5 -5 -5 -5 -4 -4 -4 -4 -4 -4 -4 -4
-4 -4 -4 -4 -4 -4 -4 -5 -5 -5 -5 -6 -6 -6 -6 -6 -6 -5 -5 -5 -5 -4 -4 -3 -4 -4 -4
-5 -5 -5 -5 -5 -5 -5 -6 -6 -6 -6 -6 -6 -6 -6 -6 -6 -6 -6 -5 -5 -4 -4 -4 -4 -4 -5
-5 -6 -6 -6 -6 -7 -7 -6 -7 -7 -6 -6 -6 -6 -6 -6 -7 -6 -6 -5 -5 -5 -5 -5 -5 -5 -5
-6 -7 -7 -7 -7 -7 -7 -7 -7 -7 -7 -7 -6 -6 -6 -6 -6 -6 -6 -5 -5 -5 -5 -5 -5 -5 -4
-7 -7 -7 -7 -7 -7 -7 -7 -7 -8 -8 -7 -7 -6 -6 -6 -6 -6 -5 -5 -5 -5 -5 -5 -4 -4 -4
-7 -7 -7 -7 -7 -7 -7 -8 -8 -8 -8 -8 -7 -7 -7 -6 -5 -4 -4 -4 -5 -5 -5 -5 -5 -4 -4